Regional Weather Roundup
Issued by NWS

Home | Current Version | Previous Version | Graphics & Text | Print | Product List | Glossary On
Versions: 1 2 3 4 5 6 7 8 9 10 11 12 13 14 15 16 17 18 19 20 21 22 23 24 25 26 27
000
ASUS45 KBOU 170707
RWRCO

WEATHER ROUNDUP FOR COLORADO
NATIONAL WEATHER SERVICE DENVER/BOULDER CO
100 AM MDT TUE OCT 17 2017

NOTE: "FAIR" INDICATES FEW OR NO CLOUDS BELOW 12000 FEET WITH NO
SIGNIFICANT WEATHER AND/OR OBSTRUCTIONS TO VISIBILITY.

COZ001>005-013-030-031-170800-
...NORTHWEST COLORADO...

CITY           SKY/WX    TMP DP  RH WIND       PRES   REMARKS
CRAIG          FAIR      25  16  68 CALM      30.40S
HAYDEN         FAIR      38  10  31 E13       30.41S
MEEKER         FAIR      30  14  51 NE5       30.41S WCI  25
RABBIT EARS PA FAIR      37   1  22 W6        30.55S
STEAMBOAT SPGS FAIR      33  10  39 CALM      30.42S
WALDEN         FAIR      30   5  34 SE8       30.46S WCI  23
$$

COZ006>008-011-170800-
...WEST CENTRAL VALLEYS...

CITY           SKY/WX    TMP DP  RH WIND       PRES   REMARKS
GRAND JUNCTION FAIR      34  12  40 CALM      30.36R
MONTROSE       FAIR      36  18  48 S9        30.42S
EAGLE          FAIR      30  13  49 SE3       30.47S
RIFLE          FAIR      35  13  40 CALM      30.41R
DELTA          FAIR      40  11  30 CALM      30.39S
NUCLA          FAIR      41  10  28 SE9       30.43R
$$

COZ017>023-064>068-170800-
...SOUTHWEST COLORADO...

CITY           SKY/WX    TMP DP  RH WIND       PRES   REMARKS
DURANGO        FAIR      36  17  46 N7        30.40F
CORTEZ         FAIR      31  16  54 E6        30.39S WCI  25
PAGOSA SPRINGS FAIR      36  14  40 CALM      30.46S
TELLURIDE      NOT AVBL
WOLF CREEK PAS FAIR      34   5  29 S12       30.69S WCI  25
$$

COZ009-010-012-014-032>034-037-058>063-170800-
...CENTRAL COLORADO...

CITY           SKY/WX    TMP DP  RH WIND       PRES   REMARKS
ASPEN          FAIR      33  10  38 S7        30.47S WCI  27
BUENA VISTA    FAIR      36   5  27 CALM      30.46S
COPPER MTN     FAIR      37 -17   9 SW5       30.64S
BERTHOUD PASS  FAIR      30  21  69 NW18      30.63S WCI  18
COTTONWOOD PAS FAIR      50 -26   4 W9        30.53F
GUNNISON       FAIR      27  11  51 CALM      30.51R
KREMMLING      FAIR      30  18  59 CALM      30.48S
LEADVILLE      FAIR      27   2  34 NE9       30.53F WCI  18
MONARCH PASS   FAIR      34  -8  16 W23       30.73S WCI  22
SALIDA         NOT AVBL
SUNLIGHT       FAIR      36  -4  18 SW10      30.61F
WILKERSON PASS FAIR      39 -13  10 W8        30.60F
$$

COZ069>075-170800-
...SAN LUIS VALLEY/SANGRE DE CRISTO MOUNTAINS...

CITY           SKY/WX    TMP DP  RH WIND       PRES   REMARKS
ALAMOSA        FAIR      27  16  63 NE3       30.44R
DEL NORTE      FAIR      39  15  37 W9        30.46S
LA VETA PASS   FAIR      41  10  28 MISG      30.63S
SAGUACHE       FAIR      37   5  25 NW12      30.45S
$$

COZ035-036-038>040-170800-
...NORTHERN COLORADO FRONT RANGE...

CITY           SKY/WX    TMP DP  RH WIND       PRES   REMARKS
DENVER INTL AP FAIR      42  20  41 S8        30.26F
DMNS CITY PARK   N/A     44  22  40 SE10      30.27S
AURORA         PTCLDY    44  20  37 S7        30.28F
FRONT RANGE AP FAIR      41  25  52 S13       30.28F
ERIE MUNI ARPT FAIR      42  25  49 SW5       30.31S
BOULDER MUN AP FAIR      50  19  29 CALM      30.26R
CENTENNIAL     FAIR      42  18  37 S8        30.29S
BROOMFIELD     FAIR      46  21  36 SW5       30.28F
FORT COLLINS   FAIR      49  26  41 CALM      30.26S
LONGMONT       FAIR      39  26  58 W8        30.27S
$$

COZ041-046-047-076>085-087-088-170800-
...PIKES PEAK/PALMER DIVIDE AND SOUTHERN FOOTHILLS...

CITY           SKY/WX    TMP DP  RH WIND       PRES   REMARKS
COLO. SPRINGS  FAIR      45  16  31 N12       30.31F
A. F. ACADEMY  FAIR      36  11  35 N10       30.33S
SCHRIEVER AFB  FAIR      51   7  16 N9        30.31S
CHEYENNE MTN   FAIR      55   8  15 NW9       30.29F
ELLICOTT       FAIR     N/A N/A N/A NE5       30.29S
FALCON         FAIR      42  10  27 NW7       30.35F
FORT CARSON    FAIR      47  15  27 NW12      30.28S
LIMON          FAIR      40  21  46 NW7       30.27R
MONUMENT HILL  NOT AVBL
CANON CITY     CLEAR     52  10  19 W10       30.27S
WALSENBURG     FAIR      50  14  23 CALM      30.30R
TRINIDAD       FAIR      46  23  40 W10       30.27R
$$

COZ042>045-048>051-090-091-170800-
...NORTHEAST COLORADO...

CITY           SKY/WX    TMP DP  RH WIND       PRES   REMARKS
GREELEY ARPT   FAIR      37  28  70 CALM      30.25F
AKRON          FAIR      40  22  48 SW8       30.22F
BURLINGTON     FAIR      43  31  62 W13       30.20S
WRAY           FAIR      41  28  60 W8        30.18S
YUMA           FAIR      37  28  70 W8        30.20S
STERLING       FAIR      32  28  86 SW7       30.20S WCI  26
HOLYOKE        FAIR      41  30  65 NW5       30.17S
FORT MORGAN    FAIR      41  19  40 W7        30.24S
$$

COZ086-089-092>099-170800-
...SOUTHEAST COLORADO...

CITY           SKY/WX    TMP DP  RH WIND       PRES   REMARKS
PUEBLO         FAIR      44  23  43 NW9       30.22S
LA JUNTA       FAIR      47  28  47 W5        30.19R
LAMAR          FLURRIES  37  31  78 W3        30.16R
SPRINGFIELD      N/A     42  35  76 W7        30.18F
$$




USA.gov is the U.S. government's official web portal to all federal, state and local government web resources and services.